Simultaneous Nadir Overpasses (SNOs) Predictions

Prediction of SNOs between GOES-15 and METOP-C Satellite Orbit:

Table of predicted SNOs for the next 14.0 days since TLE Epoch: 7/2/2023
Index Date Time (GOES-15) GOES-15 Lat,Lon METOP-C Lat,Lon Distance(km) Time Diff (sec)
1 07/03/2023 09:10:33 0.16,-170.64 -0.75,-174.70 463.52 80
2 07/04/2023 08:47:17 0.20,-171.65 0.61,-169.76 215.16 80
3 07/05/2023 21:08:53 -0.17,-173.25 0.10,-174.39 131.20 80
4 07/07/2023 09:27:59 0.15,-174.79 -0.81,-179.06 487.08 80
5 07/08/2023 09:04:43 0.19,-175.80 0.55,-174.12 191.39 80
6 07/09/2023 21:26:20 -0.15,-177.39 0.16,-178.75 155.17 80
7 07/12/2023 09:22:09 0.16,-179.94 0.52,-178.48 167.12 80
8 07/13/2023 21:43:46 -0.12, 178.48 0.20, 176.89 180.37 80
9 07/14/2023 21:20:30 -0.17, 177.46 -1.17,-178.18 497.47 80
